EW5259 Weather Reports


Display with metric or nautical units.
time (UTC)temp
F
wind
direction
speed
MPH
gust
MPH
rain 1hr
in
rain 24hr
in
rain mn
in
humidity
%
barometer
mb
20260506050110 70 166 4.0 9.0 0.00 0.00 0.00 64 1011.9
20260506044559 70 180 4.0 12.0 0.00 0.00 0.00 63 1012.1
20260506043053 70 157 4.0 11.0 0.00 0.00 0.00 63 1012.2
20260506041556 70 157 4.0 10.0 0.00 0.00 0.00 62 1012.1
20260506040051 70 136 4.0 11.0 0.00 0.00 0.00 62 1012.0
20260506034553 70 147 4.0 9.0 0.00 0.00 0.00 61 1012.1
20260506033051 70 166 3.0 11.0 0.00 0.00 0.00 60 1012.5
20260506031558 71 153 2.0 6.0 0.00 0.00 0.00 60 1012.5
20260506030105 71 179 1.0 7.0 0.00 0.00 0.00 60 1012.1
20260506024553 71 128 2.0 5.0 0.00 0.00 0.00 60 1012.6
20260506023049 71 157 2.0 8.0 0.00 0.00 0.00 59 1012.6
20260506021553 71 129 2.0 12.0 0.00 0.00 0.00 59 1012.2
20260506020053 71 137 2.0 7.0 0.00 0.00 0.00 59 1012.0
20260506014559 71 159 2.0 9.0 0.00 0.00 0.00 58 1011.9
20260506013053 71 161 3.0 11.0 0.00 0.00 0.00 58 1011.7
20260506011558 71 143 3.0 10.0 0.00 0.00 0.00 58 1011.6
20260506010058 71 107 3.0 8.0 0.00 0.00 0.00 56 1011.5
20260506004627 71 146 3.0 8.0 0.00 0.00 0.00 56 1011.5
20260506003058 71 173 3.0 7.0 0.00 0.00 0.00 55 1011.6
20260506001555 71 139 2.0 11.0 0.00 0.00 0.00 55 1011.7
20260506000057 71 0 0.0 2.0 0.00 0.00 0.00 55 1011.9
20260505234618 71 0 1.0 7.0 0.00 0.00 0.00 54 1011.8
20260505233051 72 171 1.0 6.0 0.00 0.00 0.00 52 1011.9
20260505231602 72 115 1.0 7.0 0.00 0.00 0.00 52 1012.0
20260505230057 71 148 3.0 7.0 0.00 0.00 0.00 51 1011.8
20260505224553 71 156 4.0 7.0 0.00 0.00 0.00 51 1011.6
20260505223103 71 140 0.0 7.0 0.00 0.00 0.00 55 1012.0
20260505221606 71 155 3.0 8.0 0.00 0.00 0.00 52 1011.7
20260505220130 71 142 2.0 7.0 0.00 0.00 0.00 55 1011.9
20260505214609 71 131 3.0 15.0 0.00 0.00 0.00 54 1011.8
20260505213057 72 164 4.0 10.0 0.00 0.00 0.00 53 1011.9
20260505211603 74 163 4.0 11.0 0.00 0.00 0.00 52 1012.3
20260505210052 75 153 1.0 8.0 0.00 0.00 0.00 47 1012.6
20260505204558 75 192 2.0 8.0 0.00 0.00 0.00 45 1012.5
20260505203055 76 144 4.0 9.0 0.00 0.00 0.00 44 1012.6
20260505201607 76 153 4.0 9.0 0.00 0.00 0.00 49 1012.8
20260505194602 77 153 3.0 13.0 0.00 0.00 0.00 47 1013.1
20260505193052 78 161 2.0 9.0 0.00 0.00 0.00 44 1013.3
20260505191555 78 35 6.0 12.0 0.00 0.00 0.00 43 1013.4
20260505190100 77 117 3.0 14.0 0.00 0.00 0.00 48 1013.4
20260505184553 77 107 4.0 15.0 0.00 0.00 0.00 46 1013.5
20260505183055 77 146 9.0 20.0 0.00 0.00 0.00 43 1013.6
20260505181554 77 104 4.0 13.0 0.00 0.00 0.00 49 1013.9
20260505174552 76 143 8.0 17.0 0.00 0.00 0.00 45 1014.1
20260505173053 76 121 6.0 15.0 0.00 0.00 0.00 46 1014.2
20260505171555 75 145 6.0 14.0 0.00 0.00 0.00 51 1014.6
20260505170100 75 169 1.0 10.0 0.00 0.00 0.00 53 1015.0
20260505164600 76 114 3.0 8.0 0.00 0.00 0.00 53 1015.0
20260505163056 76 219 1.0 8.0 0.00 0.00 0.00 55 1015.3
20260505161558 74 161 3.0 9.0 0.00 0.00 0.00 57 1015.3
20260505153051 72 158 2.0 6.0 0.00 0.00 0.00 62 1015.5
20260505151606 71 165 3.0 7.0 0.00 0.00 0.00 62 1015.5
20260505124558 60 0 0.0 0.0 0.00 0.00 0.00 72 1015.2
20260505123053 59 0 0.0 0.0 0.00 0.00 0.00 71 1014.9
20260505121553 59 0 0.0 0.0 0.00 0.00 0.00 72 1014.7
20260505120053 59 0 0.0 0.0 0.00 0.00 0.00 73 1014.6
20260505114550 58 0 0.0 0.0 0.00 0.00 0.00 72 1014.5
20260505113048 58 0 0.0 0.0 0.00 0.00 0.00 71 1014.3
20260505111551 58 0 0.0 0.0 0.00 0.00 0.00 70 1014.2
20260505101553 57 0 0.0 3.0 0.00 0.00 0.00 70 1013.6
20260505100050 57 164 1.0 4.0 0.00 0.00 0.00 70 1013.6
20260505094549 58 138 1.0 4.0 0.00 0.00 0.00 69 1013.4
20260505093048 58 0 0.0 4.0 0.00 0.00 0.00 68 1013.6
20260505091605 59 158 2.0 5.0 0.00 0.00 0.00 67 1013.5
20260505090050 60 0 0.0 3.0 0.00 0.00 0.00 64 1013.4
20260505084552 61 111 2.0 6.0 0.00 0.00 0.00 63 1013.4
20260505083049 61 130 2.0 4.0 0.00 0.00 0.00 61 1013.6
20260505081552 62 147 0.0 4.0 0.00 0.00 0.00 59 1013.6
20260505080057 62 0 0.0 0.0 0.00 0.00 0.00 59 1013.8
20260505074552 62 0 0.0 3.0 0.00 0.00 0.00 58 1013.8
20260505073055 62 0 0.0 0.0 0.00 0.00 0.00 59 1013.8
20260505071555 62 0 0.0 0.0 0.00 0.00 0.00 58 1013.8
20260505070058 61 0 0.0 1.0 0.00 0.00 0.00 59 1013.9
20260505064554 62 0 0.0 2.0 0.00 0.00 0.00 60 1013.9
20260505063113 62 0 0.0 2.0 0.00 0.00 0.00 60 1014.0
20260505061556 62 150 0.0 2.0 0.00 0.00 0.00 60 1014.1
20260505060056 63 0 0.0 0.0 0.00 0.00 0.00 60 1014.0
20260505054609 64 0 0.0 2.0 0.00 0.00 0.00 60 1013.9